Time,TemperatureF,DewpointF,PressureIn,WindDirection,WindDirectionDegrees,WindSpeedMPH,WindSpeedGustMPH,Humidity,HourlyPrecipIn,Conditions,Clouds,dailyrainin,SoftwareType,DateUTC
2013-01-02 00:00:00,16.9,9.9,30.06,SW,225,0.0,2.5,74,0.00,,,0.00,WUHU21623XXSP,2013-01-02 05:00:00,
2013-01-02 00:05:00,16.9,9.9,30.07,SW,225,0.0,0.0,74,0.00,,,0.00,WUHU21623XXSP,2013-01-02 05:05:00,
2013-01-02 00:10:00,16.9,9.9,30.06,SSW,202,0.0,0.0,74,0.00,,,0.00,WUHU21623XXSP,2013-01-02 05:10:00,
2013-01-02 00:15:00,16.9,9.9,30.06,SW,225,0.0,0.0,75,0.00,,,0.00,WUHU21623XXSP,2013-01-02 05:15:00,
2013-01-02 00:20:00,16.9,10.3,30.06,SW,225,0.0,0.0,75,0.00,,,0.00,WUHU21623XXSP,2013-01-02 05:20:00,
2013-01-02 00:25:00,16.9,10.3,30.06,SW,225,0.0,0.0,75,0.00,,,0.00,WUHU21623XXSP,2013-01-02 05:25:00,
2013-01-02 00:30:00,16.9,10.3,30.06,SSW,202,0.9,0.9,75,0.00,,,0.00,WUHU21623XXSP,2013-01-02 05:30:00,
2013-01-02 00:35:00,16.9,10.3,30.06,SSW,202,0.9,0.9,75,0.00,,,0.00,WUHU21623XXSP,2013-01-02 05:35:00,
2013-01-02 00:40:00,16.9,10.3,30.06,SSW,202,0.9,0.9,75,0.00,,,0.00,WUHU21623XXSP,2013-01-02 05:40:00,
2013-01-02 00:45:00,16.9,10.3,30.06,SW,225,0.0,0.9,75,0.00,,,0.00,WUHU21623XXSP,2013-01-02 05:45:00,
2013-01-02 00:50:00,17.2,10.9,30.06,North,0,5.4,5.4,76,0.00,,,0.00,WUHU21623XXSP,2013-01-02 05:50:00,
2013-01-02 00:55:00,17.2,10.9,30.06,SW,225,1.6,5.4,76,0.00,,,0.00,WUHU21623XXSP,2013-01-02 05:55:00,
2013-01-02 01:00:00,17.2,10.9,30.05,SW,225,0.0,1.6,76,0.00,,,0.00,WUHU21623XXSP,2013-01-02 06:00:00,
2013-01-02 01:05:00,17.2,10.9,30.05,SW,225,1.1,1.3,76,0.00,,,0.00,WUHU21623XXSP,2013-01-02 06:05:00,
2013-01-02 01:10:00,17.2,10.9,30.05,SSW,202,0.0,1.6,76,0.00,,,0.00,WUHU21623XXSP,2013-01-02 06:10:00,
2013-01-02 01:15:00,16.9,10.5,30.05,NNW,337,0.0,1.6,76,0.00,,,0.00,WUHU21623XXSP,2013-01-02 06:15:00,
2013-01-02 01:20:00,16.9,10.3,30.05,SW,225,1.6,6.0,75,0.00,,,0.00,WUHU21623XXSP,2013-01-02 06:20:00,
2013-01-02 01:25:00,16.9,10.3,30.05,SW,225,4.5,6.0,75,0.00,,,0.00,WUHU21623XXSP,2013-01-02 06:25:00,
2013-01-02 01:30:00,16.7,10.4,30.05,SW,225,0.0,4.5,76,0.00,,,0.00,WUHU21623XXSP,2013-01-02 06:30:00,
2013-01-02 01:35:00,16.5,10.2,30.06,SW,225,4.9,4.9,76,0.00,,,0.00,WUHU21623XXSP,2013-01-02 06:35:00,
2013-01-02 01:40:00,16.5,10.2,30.05,North,0,3.6,7.8,76,0.00,,,0.00,WUHU21623XXSP,2013-01-02 06:40:00,
2013-01-02 01:45:00,16.3,10.0,30.06,SW,225,0.0,7.8,76,0.00,,,0.00,WUHU21623XXSP,2013-01-02 06:45:00,
2013-01-02 01:50:00,16.3,10.0,30.06,SW,225,2.7,2.7,76,0.00,,,0.00,WUHU21623XXSP,2013-01-02 06:50:00,
2013-01-02 01:55:00,16.3,10.0,30.06,SW,225,5.1,5.1,76,0.00,,,0.00,WUHU21623XXSP,2013-01-02 06:55:00,
2013-01-02 02:00:00,16.3,10.0,30.05,North,0,0.0,5.1,76,0.00,,,0.00,WUHU21623XXSP,2013-01-02 07:00:00,
2013-01-02 02:05:00,16.3,10.0,30.06,SW,225,4.9,4.9,76,0.00,,,0.00,WUHU21623XXSP,2013-01-02 07:05:00,
2013-01-02 02:10:00,16.3,10.0,30.06,SSW,202,0.0,4.9,76,0.00,,,0.00,WUHU21623XXSP,2013-01-02 07:10:00,
2013-01-02 02:15:00,16.3,10.0,30.06,North,0,0.0,0.0,76,0.00,,,0.00,WUHU21623XXSP,2013-01-02 07:15:00,
2013-01-02 02:20:00,16.3,10.0,30.06,SSW,202,0.0,0.0,76,0.00,,,0.00,WUHU21623XXSP,2013-01-02 07:20:00,
2013-01-02 02:25:00,16.3,10.0,30.06,SW,225,2.0,2.0,76,0.00,,,0.00,WUHU21623XXSP,2013-01-02 07:25:00,
2013-01-02 02:30:00,16.5,10.2,30.06,SW,225,1.3,2.9,76,0.00,,,0.00,WUHU21623XXSP,2013-01-02 07:30:00,
2013-01-02 02:35:00,16.5,10.2,30.06,SW,225,0.0,2.9,76,0.00,,,0.00,WUHU21623XXSP,2013-01-02 07:35:00,
2013-01-02 02:40:00,16.5,10.2,30.06,SSW,202,3.4,3.4,76,0.00,,,0.00,WUHU21623XXSP,2013-01-02 07:40:00,
2013-01-02 02:45:00,16.7,10.4,30.06,SW,225,0.0,5.8,76,0.00,,,0.00,WUHU21623XXSP,2013-01-02 07:45:00,
2013-01-02 02:50:00,16.7,10.7,30.06,SW,225,0.0,5.8,77,0.00,,,0.00,WUHU21623XXSP,2013-01-02 07:50:00,
2013-01-02 02:55:00,16.7,10.7,30.06,SW,225,2.2,2.2,77,0.00,,,0.00,WUHU21623XXSP,2013-01-02 07:55:00,
2013-01-02 03:00:00,16.7,10.7,30.06,SW,225,2.2,2.2,77,0.00,,,0.00,WUHU21623XXSP,2013-01-02 08:00:00,
2013-01-02 03:05:00,16.9,10.5,30.06,SW,225,0.0,3.1,76,0.00,,,0.00,WUHU21623XXSP,2013-01-02 08:05:00,
2013-01-02 03:10:00,16.9,10.5,30.06,SW,225,0.0,3.1,76,0.00,,,0.00,WUHU21623XXSP,2013-01-02 08:10:00,
2013-01-02 03:15:00,16.9,10.5,30.06,SW,225,2.0,6.0,76,0.00,,,0.00,WUHU21623XXSP,2013-01-02 08:15:00,
2013-01-02 03:20:00,16.9,10.5,30.06,SW,225,0.0,6.0,76,0.00,,,0.00,WUHU21623XXSP,2013-01-02 08:20:00,
2013-01-02 03:25:00,16.9,10.5,30.06,SSW,202,2.2,5.4,76,0.00,,,0.00,WUHU21623XXSP,2013-01-02 08:25:00,
2013-01-02 03:30:00,16.9,10.5,30.07,SW,225,4.7,4.7,76,0.00,,,0.00,WUHU21623XXSP,2013-01-02 08:30:00,
2013-01-02 03:35:00,16.9,10.5,30.07,SW,225,4.7,4.7,76,0.00,,,0.00,WUHU21623XXSP,2013-01-02 08:35:00,
2013-01-02 03:40:00,16.9,10.5,30.08,SSW,202,1.6,4.7,76,0.00,,,0.00,WUHU21623XXSP,2013-01-02 08:40:00,
2013-01-02 03:45:00,16.9,10.5,30.08,SSW,202,6.9,6.9,76,0.00,,,0.00,WUHU21623XXSP,2013-01-02 08:45:00,
2013-01-02 03:50:00,16.9,10.5,30.08,North,0,0.0,6.9,76,0.00,,,0.00,WUHU21623XXSP,2013-01-02 08:50:00,
2013-01-02 03:55:00,16.9,10.5,30.08,SSW,202,0.0,3.1,76,0.00,,,0.00,WUHU21623XXSP,2013-01-02 08:55:00,
2013-01-02 04:00:00,16.7,10.4,30.08,SSW,202,1.3,2.2,76,0.00,,,0.00,WUHU21623XXSP,2013-01-02 09:00:00,
2013-01-02 04:05:00,16.7,10.4,30.09,SW,225,3.1,3.6,76,0.00,,,0.00,WUHU21623XXSP,2013-01-02 09:05:00,
2013-01-02 04:10:00,16.9,10.5,30.09,SSW,202,0.0,3.6,76,0.00,,,0.00,WUHU21623XXSP,2013-01-02 09:10:00,
2013-01-02 04:15:00,16.9,10.5,30.09,SSW,202,0.0,1.6,76,0.00,,,0.00,WUHU21623XXSP,2013-01-02 09:15:00,
2013-01-02 04:20:00,16.9,10.5,30.08,SW,225,0.0,2.0,76,0.00,,,0.00,WUHU21623XXSP,2013-01-02 09:20:00,
2013-01-02 04:25:00,16.9,10.8,30.09,SSW,202,3.8,3.8,77,0.00,,,0.00,WUHU21623XXSP,2013-01-02 09:25:00,
2013-01-02 04:30:00,16.9,10.8,30.09,North,0,2.9,3.8,77,0.00,,,0.00,WUHU21623XXSP,2013-01-02 09:30:00,
2013-01-02 04:35:00,16.9,10.8,30.09,SW,225,0.0,4.0,77,0.00,,,0.00,WUHU21623XXSP,2013-01-02 09:35:00,
2013-01-02 04:40:00,16.9,10.8,30.09,SW,225,0.0,4.0,77,0.00,,,0.00,WUHU21623XXSP,2013-01-02 09:40:00,
2013-01-02 04:45:00,16.9,10.8,30.08,SW,225,1.6,1.6,77,0.00,,,0.00,WUHU21623XXSP,2013-01-02 09:45:00,
2013-01-02 04:50:00,16.9,10.8,30.09,NNW,337,0.0,2.7,77,0.00,,,0.00,WUHU21623XXSP,2013-01-02 09:50:00,
2013-01-02 04:55:00,16.9,10.8,30.09,SW,225,0.0,2.7,77,0.00,,,0.00,WUHU21623XXSP,2013-01-02 09:55:00,
2013-01-02 05:00:00,16.9,10.8,30.08,North,0,2.7,2.7,77,0.00,,,0.00,WUHU21623XXSP,2013-01-02 10:00:00,
2013-01-02 05:05:00,16.9,10.8,30.08,SSW,202,0.0,2.7,77,0.00,,,0.00,WUHU21623XXSP,2013-01-02 10:05:00,
2013-01-02 05:10:00,16.9,10.8,30.09,SW,225,6.5,6.5,77,0.00,,,0.00,WUHU21623XXSP,2013-01-02 10:10:00,
2013-01-02 05:15:00,16.9,10.8,30.08,SW,225,0.0,6.5,77,0.00,,,0.00,WUHU21623XXSP,2013-01-02 10:15:00,
2013-01-02 05:20:00,16.9,10.8,30.07,SW,225,0.0,0.0,77,0.00,,,0.00,WUHU21623XXSP,2013-01-02 10:20:00,
2013-01-02 05:25:00,16.9,10.8,30.07,SSW,202,0.0,0.0,77,0.00,,,0.00,WUHU21623XXSP,2013-01-02 10:25:00,
2013-01-02 05:30:00,16.7,10.7,30.08,SSW,202,1.1,1.1,77,0.00,,,0.00,WUHU21623XXSP,2013-01-02 10:30:00,
2013-01-02 05:35:00,16.5,10.5,30.07,North,0,0.0,1.1,77,0.00,,,0.00,WUHU21623XXSP,2013-01-02 10:35:00,
2013-01-02 05:40:00,16.5,10.5,30.08,North,0,0.0,1.1,77,0.00,,,0.00,WUHU21623XXSP,2013-01-02 10:40:00,
2013-01-02 05:45:00,16.3,10.3,30.08,SSW,202,0.0,0.0,77,0.00,,,0.00,WUHU21623XXSP,2013-01-02 10:45:00,
2013-01-02 05:50:00,16.3,10.3,30.08,SW,225,0.0,0.0,77,0.00,,,0.00,WUHU21623XXSP,2013-01-02 10:50:00,
2013-01-02 05:55:00,16.3,10.3,30.07,SW,225,0.0,0.0,77,0.00,,,0.00,WUHU21623XXSP,2013-01-02 10:55:00,
2013-01-02 06:00:00,16.3,10.3,30.08,SW,225,0.0,0.0,77,0.00,,,0.00,WUHU21623XXSP,2013-01-02 11:00:00,
2013-01-02 06:05:00,16.2,10.2,30.08,SW,225,0.0,0.0,77,0.00,,,0.00,WUHU21623XXSP,2013-01-02 11:05:00,
2013-01-02 06:10:00,16.2,10.2,30.08,SW,225,0.0,0.0,77,0.00,,,0.00,WUHU21623XXSP,2013-01-02 11:10:00,
2013-01-02 06:15:00,16.2,10.2,30.08,SW,225,0.0,0.0,77,0.00,,,0.00,WUHU21623XXSP,2013-01-02 11:15:00,
2013-01-02 06:20:00,16.2,10.2,30.08,SSW,202,2.0,2.0,77,0.00,,,0.00,WUHU21623XXSP,2013-01-02 11:20:00,
2013-01-02 06:25:00,16.3,10.2,30.09,SSW,202,2.0,2.0,77,0.00,,,0.00,WUHU21623XXSP,2013-01-02 11:25:00,
2013-01-02 06:30:00,16.3,10.3,30.09,SSW,202,1.8,2.0,77,0.00,,,0.00,WUHU21623XXSP,2013-01-02 11:30:00,
2013-01-02 06:35:00,16.3,10.3,30.09,SSW,202,0.0,2.0,77,0.00,,,0.00,WUHU21623XXSP,2013-01-02 11:35:00,
2013-01-02 06:40:00,16.3,10.3,30.09,SSW,202,0.0,1.8,77,0.00,,,0.00,WUHU21623XXSP,2013-01-02 11:40:00,
2013-01-02 06:45:00,16.5,10.5,30.09,SW,225,0.0,0.0,77,0.00,,,0.00,WUHU21623XXSP,2013-01-02 11:45:00,
2013-01-02 06:50:00,16.5,10.8,30.09,SW,225,0.0,0.0,78,0.00,,,0.00,WUHU21623XXSP,2013-01-02 11:50:00,
2013-01-02 06:55:00,16.5,10.8,30.09,SW,225,0.0,0.0,78,0.00,,,0.00,WUHU21623XXSP,2013-01-02 11:55:00,
2013-01-02 07:00:00,16.5,10.8,30.09,SW,225,0.0,0.0,78,0.00,,,0.00,WUHU21623XXSP,2013-01-02 12:00:00,
2013-01-02 07:05:00,16.7,11.0,30.09,SW,225,0.0,0.0,78,0.00,,,0.00,WUHU21623XXSP,2013-01-02 12:05:00,
2013-01-02 07:10:00,16.9,11.1,30.09,SW,225,0.0,0.0,78,0.00,,,0.00,WUHU21623XXSP,2013-01-02 12:10:00,
2013-01-02 07:15:00,16.9,11.1,30.09,SW,225,0.0,0.0,78,0.00,,,0.00,WUHU21623XXSP,2013-01-02 12:15:00,
2013-01-02 07:20:00,16.9,11.1,30.10,SW,225,1.6,1.6,78,0.00,,,0.00,WUHU21623XXSP,2013-01-02 12:20:00,
2013-01-02 07:25:00,17.2,11.5,30.09,SW,225,0.0,1.6,78,0.00,,,0.00,WUHU21623XXSP,2013-01-02 12:25:00,
2013-01-02 07:30:00,17.2,11.5,30.09,SW,225,0.0,0.0,78,0.00,,,0.00,WUHU21623XXSP,2013-01-02 12:30:00,
2013-01-02 07:35:00,17.4,11.6,30.09,SW,225,0.0,0.0,78,0.00,,,0.00,WUHU21623XXSP,2013-01-02 12:35:00,
2013-01-02 07:40:00,17.4,11.6,30.09,SW,225,1.6,1.6,78,0.00,,,0.00,WUHU21623XXSP,2013-01-02 12:40:00,
2013-01-02 07:45:00,17.4,11.6,30.09,SW,225,0.0,1.6,78,0.00,,,0.00,WUHU21623XXSP,2013-01-02 12:45:00,
2013-01-02 07:50:00,17.8,12.0,30.10,SSW,202,0.0,0.0,78,0.00,,,0.00,WUHU21623XXSP,2013-01-02 12:50:00,
2013-01-02 07:55:00,17.8,12.0,30.09,SSW,202,0.0,0.0,78,0.00,,,0.00,WUHU21623XXSP,2013-01-02 12:55:00,
2013-01-02 08:00:00,18.0,12.1,30.10,SW,225,0.0,0.0,78,0.00,,,0.00,WUHU21623XXSP,2013-01-02 13:00:00,
2013-01-02 08:05:00,18.1,12.3,30.10,SW,225,0.0,0.9,78,0.00,,,0.00,WUHU21623XXSP,2013-01-02 13:05:00,
2013-01-02 08:10:00,18.3,12.5,30.10,North,0,0.0,0.9,78,0.00,,,0.00,WUHU21623XXSP,2013-01-02 13:10:00,
2013-01-02 08:15:00,18.3,12.5,30.10,NNW,337,4.9,4.9,78,0.00,,,0.00,WUHU21623XXSP,2013-01-02 13:15:00,
2013-01-02 08:20:00,18.5,12.7,30.10,SW,225,0.0,4.9,78,0.00,,,0.00,WUHU21623XXSP,2013-01-02 13:20:00,
2013-01-02 08:25:00,18.7,12.8,30.10,SW,225,1.8,2.9,78,0.00,,,0.00,WUHU21623XXSP,2013-01-02 13:25:00,
2013-01-02 08:30:00,18.7,12.8,30.10,SW,225,0.0,1.8,78,0.00,,,0.00,WUHU21623XXSP,2013-01-02 13:30:00,
2013-01-02 08:35:00,19.0,13.2,30.09,SW,225,0.0,0.0,78,0.00,,,0.00,WUHU21623XXSP,2013-01-02 13:35:00,
2013-01-02 08:40:00,19.2,13.2,30.09,North,0,3.4,3.4,78,0.00,,,0.00,WUHU21623XXSP,2013-01-02 13:40:00,
2013-01-02 08:45:00,19.2,13.4,30.09,North,0,0.0,3.4,78,0.00,,,0.00,WUHU21623XXSP,2013-01-02 13:45:00,
2013-01-02 08:50:00,19.6,13.6,30.10,North,0,0.0,1.3,78,0.00,,,0.00,WUHU21623XXSP,2013-01-02 13:50:00,
2013-01-02 08:55:00,19.6,13.7,30.09,SSW,202,0.0,0.0,78,0.00,,,0.00,WUHU21623XXSP,2013-01-02 13:55:00,
2013-01-02 09:00:00,19.6,13.7,30.10,SSW,202,0.0,0.0,78,0.00,,,0.00,WUHU21623XXSP,2013-01-02 14:00:00,
2013-01-02 09:05:00,19.9,13.9,30.10,North,0,7.4,7.4,78,0.00,,,0.00,WUHU21623XXSP,2013-01-02 14:05:00,
2013-01-02 09:10:00,20.1,14.1,30.10,North,0,2.2,7.4,78,0.00,,,0.00,WUHU21623XXSP,2013-01-02 14:10:00,
2013-01-02 09:15:00,20.3,14.5,30.10,NNW,337,7.4,7.4,78,0.00,,,0.00,WUHU21623XXSP,2013-01-02 14:15:00,
2013-01-02 09:20:00,20.5,14.6,30.10,NNW,337,0.0,7.4,78,0.00,,,0.00,WUHU21623XXSP,2013-01-02 14:20:00,
2013-01-02 09:25:00,20.5,14.6,30.10,SSW,202,2.7,2.7,78,0.00,,,0.00,WUHU21623XXSP,2013-01-02 14:25:00,
2013-01-02 09:30:00,20.8,15.0,30.10,North,0,6.5,6.5,78,0.00,,,0.00,WUHU21623XXSP,2013-01-02 14:30:00,
2013-01-02 09:35:00,21.0,15.2,30.11,SW,225,0.0,6.5,78,0.00,,,0.00,WUHU21623XXSP,2013-01-02 14:35:00,
2013-01-02 09:40:00,21.0,15.2,30.11,SW,225,0.0,6.5,78,0.00,,,0.00,WUHU21623XXSP,2013-01-02 14:40:00,
2013-01-02 09:45:00,21.4,15.5,30.11,North,0,6.5,6.5,78,0.00,,,0.00,WUHU21623XXSP,2013-01-02 14:45:00,
2013-01-02 09:50:00,21.4,15.2,30.11,North,0,0.0,6.5,77,0.00,,,0.00,WUHU21623XXSP,2013-01-02 14:50:00,
2013-01-02 09:55:00,21.7,15.6,30.11,North,0,5.8,7.2,77,0.00,,,0.00,WUHU21623XXSP,2013-01-02 14:55:00,
2013-01-02 10:00:00,21.7,15.6,30.12,SSW,202,0.0,8.3,77,0.00,,,0.00,WUHU21623XXSP,2013-01-02 15:00:00,
2013-01-02 10:05:00,21.9,15.8,30.12,SW,225,0.7,8.3,77,0.00,,,0.00,WUHU21623XXSP,2013-01-02 15:05:00,
2013-01-02 10:10:00,21.9,15.8,30.12,SSW,202,1.6,8.1,77,0.00,,,0.00,WUHU21623XXSP,2013-01-02 15:10:00,
2013-01-02 10:15:00,21.9,15.8,30.12,SSW,202,1.6,1.6,77,0.00,,,0.00,WUHU21623XXSP,2013-01-02 15:15:00,
2013-01-02 10:20:00,22.1,16.0,30.13,SSW,202,1.6,1.6,77,0.00,,,0.00,WUHU21623XXSP,2013-01-02 15:20:00,
2013-01-02 10:25:00,22.3,16.1,30.13,SSW,202,2.7,2.7,77,0.00,,,0.00,WUHU21623XXSP,2013-01-02 15:25:00,
2013-01-02 10:30:00,22.5,16.1,30.14,SSW,202,2.7,2.7,77,0.00,,,0.00,WUHU21623XXSP,2013-01-02 15:30:00,
2013-01-02 10:35:00,22.6,16.5,30.14,North,0,7.8,7.8,77,0.00,,,0.00,WUHU21623XXSP,2013-01-02 15:35:00,
2013-01-02 10:40:00,22.6,16.5,30.14,North,0,0.0,7.8,77,0.00,,,0.00,WUHU21623XXSP,2013-01-02 15:40:00,
2013-01-02 10:45:00,22.6,16.5,30.14,SSW,202,0.0,7.6,77,0.00,,,0.00,WUHU21623XXSP,2013-01-02 15:45:00,
2013-01-02 10:50:00,22.8,16.7,30.14,SW,225,0.0,5.6,77,0.00,,,0.00,WUHU21623XXSP,2013-01-02 15:50:00,
2013-01-02 10:55:00,22.8,16.7,30.14,SSW,202,7.2,7.2,77,0.00,,,0.00,WUHU21623XXSP,2013-01-02 15:55:00,
2013-01-02 11:00:00,22.8,16.7,30.15,SSW,202,0.0,7.2,77,0.00,,,0.00,WUHU21623XXSP,2013-01-02 16:00:00,
2013-01-02 11:05:00,22.8,16.7,30.15,North,0,0.0,7.2,77,0.00,,,0.00,WUHU21623XXSP,2013-01-02 16:05:00,
2013-01-02 11:10:00,23.0,16.9,30.15,North,0,7.6,7.6,77,0.00,,,0.00,WUHU21623XXSP,2013-01-02 16:10:00,
2013-01-02 11:15:00,23.2,17.0,30.15,North,0,2.0,7.6,77,0.00,,,0.00,WUHU21623XXSP,2013-01-02 16:15:00,
2013-01-02 11:20:00,23.4,17.2,30.15,SSW,202,0.0,5.4,77,0.00,,,0.00,WUHU21623XXSP,2013-01-02 16:20:00,
2013-01-02 11:25:00,23.5,17.4,30.15,SW,225,4.9,5.4,77,0.00,,,0.00,WUHU21623XXSP,2013-01-02 16:25:00,
2013-01-02 11:30:00,23.5,17.4,30.15,North,0,4.7,4.9,77,0.00,,,0.00,WUHU21623XXSP,2013-01-02 16:30:00,
2013-01-02 11:35:00,23.7,17.5,30.15,North,0,4.3,4.7,77,0.00,,,0.00,WUHU21623XXSP,2013-01-02 16:35:00,
2013-01-02 11:40:00,23.9,17.7,30.14,NNW,337,8.5,8.5,77,0.00,,,0.00,WUHU21623XXSP,2013-01-02 16:40:00,
2013-01-02 11:45:00,23.9,17.7,30.14,North,0,5.1,8.5,77,0.00,,,0.00,WUHU21623XXSP,2013-01-02 16:45:00,
2013-01-02 11:50:00,24.1,17.6,30.14,North,0,7.6,7.6,76,0.00,,,0.00,WUHU21623XXSP,2013-01-02 16:50:00,
2013-01-02 11:55:00,24.1,17.6,30.14,North,0,0.0,7.6,76,0.00,,,0.00,WUHU21623XXSP,2013-01-02 16:55:00,
2013-01-02 12:00:00,24.1,17.6,30.14,SSW,202,4.3,4.3,76,0.00,,,0.00,WUHU21623XXSP,2013-01-02 17:00:00,
2013-01-02 12:05:00,24.4,17.9,30.14,SW,225,6.3,6.3,76,0.00,,,0.00,WUHU21623XXSP,2013-01-02 17:05:00,
2013-01-02 12:10:00,24.6,18.4,30.14,SSW,202,4.5,6.3,77,0.00,,,0.00,WUHU21623XXSP,2013-01-02 17:10:00,
2013-01-02 12:15:00,24.6,18.1,30.14,SSW,202,2.0,4.5,76,0.00,,,0.00,WUHU21623XXSP,2013-01-02 17:15:00,
2013-01-02 12:20:00,24.6,18.1,30.14,SW,225,1.3,2.0,76,0.00,,,0.00,WUHU21623XXSP,2013-01-02 17:20:00,
2013-01-02 12:25:00,24.6,18.1,30.13,SSW,202,1.1,1.8,76,0.00,,,0.00,WUHU21623XXSP,2013-01-02 17:25:00,
2013-01-02 12:30:00,24.6,18.1,30.14,SSW,202,0.0,6.9,76,0.00,,,0.00,WUHU21623XXSP,2013-01-02 17:30:00,
2013-01-02 12:35:00,24.6,18.1,30.13,SSW,202,1.3,6.9,76,0.00,,,0.00,WUHU21623XXSP,2013-01-02 17:35:00,
2013-01-02 12:40:00,24.6,18.1,30.13,SSW,202,1.3,3.1,76,0.00,,,0.00,WUHU21623XXSP,2013-01-02 17:40:00,
2013-01-02 12:45:00,24.6,18.1,30.13,SW,225,2.0,2.2,76,0.00,,,0.00,WUHU21623XXSP,2013-01-02 17:45:00,
2013-01-02 12:50:00,24.4,17.9,30.12,NNW,337,2.0,2.5,76,0.00,,,0.00,WUHU21623XXSP,2013-01-02 17:50:00,
2013-01-02 12:55:00,24.4,17.6,30.12,North,0,6.9,6.9,75,0.00,,,0.00,WUHU21623XXSP,2013-01-02 17:55:00,
2013-01-02 13:00:00,24.4,17.9,30.12,SW,225,0.0,6.9,76,0.00,,,0.00,WUHU21623XXSP,2013-01-02 18:00:00,
2013-01-02 13:05:00,24.4,17.9,30.13,SW,225,0.0,0.0,76,0.00,,,0.00,WUHU21623XXSP,2013-01-02 18:05:00,
2013-01-02 13:10:00,24.1,17.6,30.12,SW,225,0.0,0.0,76,0.00,,,0.00,WUHU21623XXSP,2013-01-02 18:10:00,
2013-01-02 13:15:00,24.4,17.8,30.12,SW,225,0.0,0.0,76,0.00,,,0.00,WUHU21623XXSP,2013-01-02 18:15:00,
2013-01-02 13:20:00,24.4,17.9,30.12,SSW,202,0.0,6.0,76,0.00,,,0.00,WUHU21623XXSP,2013-01-02 18:20:00,
2013-01-02 13:25:00,24.6,18.1,30.12,SW,225,0.0,6.0,76,0.00,,,0.00,WUHU21623XXSP,2013-01-02 18:25:00,
2013-01-02 13:30:00,24.6,17.8,30.12,SW,225,6.3,6.3,75,0.00,,,0.00,WUHU21623XXSP,2013-01-02 18:30:00,
2013-01-02 13:35:00,24.6,17.8,30.12,North,0,1.8,6.3,75,0.00,,,0.00,WUHU21623XXSP,2013-01-02 18:35:00,
2013-01-02 13:40:00,25.0,18.1,30.12,SW,225,2.7,6.3,74,0.00,,,0.00,WUHU21623XXSP,2013-01-02 18:40:00,
2013-01-02 13:45:00,25.0,17.8,30.13,SSW,202,2.0,2.7,74,0.00,,,0.00,WUHU21623XXSP,2013-01-02 18:45:00,
2013-01-02 13:50:00,25.0,17.8,30.12,SSW,202,2.0,2.5,74,0.00,,,0.00,WUHU21623XXSP,2013-01-02 18:50:00,
2013-01-02 13:55:00,25.0,17.8,30.13,SSW,202,2.0,2.0,74,0.00,,,0.00,WUHU21623XXSP,2013-01-02 18:55:00,
2013-01-02 14:00:00,25.0,17.8,30.13,SSW,202,4.0,4.0,74,0.00,,,0.00,WUHU21623XXSP,2013-01-02 19:00:00,
2013-01-02 14:05:00,25.2,17.8,30.12,SSW,202,1.3,4.0,74,0.00,,,0.00,WUHU21623XXSP,2013-01-02 19:05:00,
2013-01-02 14:10:00,25.0,17.8,30.13,North,0,4.5,4.5,74,0.00,,,0.00,WUHU21623XXSP,2013-01-02 19:10:00,
2013-01-02 14:15:00,25.2,17.7,30.12,North,0,0.0,4.5,73,0.00,,,0.00,WUHU21623XXSP,2013-01-02 19:15:00,
2013-01-02 14:20:00,25.2,17.7,30.12,NNW,337,0.0,0.0,73,0.00,,,0.00,WUHU21623XXSP,2013-01-02 19:20:00,
2013-01-02 14:25:00,25.3,18.1,30.12,NNW,337,0.0,0.0,74,0.00,,,0.00,WUHU21623XXSP,2013-01-02 19:25:00,
2013-01-02 14:30:00,25.3,17.8,30.11,NNW,337,1.6,1.6,73,0.00,,,0.00,WUHU21623XXSP,2013-01-02 19:30:00,
2013-01-02 14:35:00,25.3,17.8,30.11,NNW,337,0.0,1.6,73,0.00,,,0.00,WUHU21623XXSP,2013-01-02 19:35:00,
2013-01-02 14:40:00,25.5,18.0,30.12,North,0,5.8,5.8,73,0.00,,,0.00,WUHU21623XXSP,2013-01-02 19:40:00,
2013-01-02 14:45:00,25.5,17.8,30.11,North,0,7.2,7.2,73,0.00,,,0.00,WUHU21623XXSP,2013-01-02 19:45:00,
2013-01-02 14:50:00,25.5,18.0,30.11,NNW,337,0.0,7.2,73,0.00,,,0.00,WUHU21623XXSP,2013-01-02 19:50:00,
2013-01-02 14:55:00,25.5,18.0,30.11,NNW,337,0.0,6.7,73,0.00,,,0.00,WUHU21623XXSP,2013-01-02 19:55:00,
2013-01-02 15:00:00,25.5,18.0,30.12,NNW,337,0.0,0.0,73,0.00,,,0.00,WUHU21623XXSP,2013-01-02 20:00:00,
2013-01-02 15:05:00,25.5,18.3,30.11,NNW,337,0.0,0.0,74,0.00,,,0.00,WUHU21623XXSP,2013-01-02 20:05:00,
2013-01-02 15:10:00,25.7,18.5,30.11,NNW,337,0.0,0.0,74,0.00,,,0.00,WUHU21623XXSP,2013-01-02 20:10:00,
2013-01-02 15:15:00,25.7,18.5,30.12,NNW,337,0.0,0.0,74,0.00,,,0.00,WUHU21623XXSP,2013-01-02 20:15:00,
2013-01-02 15:20:00,25.7,18.5,30.12,NNW,337,0.0,0.0,74,0.00,,,0.00,WUHU21623XXSP,2013-01-02 20:20:00,
2013-01-02 15:25:00,25.7,18.5,30.12,NNW,337,0.0,0.0,74,0.00,,,0.00,WUHU21623XXSP,2013-01-02 20:25:00,
2013-01-02 15:30:00,25.9,18.7,30.13,NNW,337,0.0,0.0,74,0.00,,,0.00,WUHU21623XXSP,2013-01-02 20:30:00,
2013-01-02 15:35:00,25.9,18.4,30.13,SSW,202,0.0,0.0,73,0.00,,,0.00,WUHU21623XXSP,2013-01-02 20:35:00,
2013-01-02 15:40:00,25.7,18.5,30.13,SSW,202,0.0,0.0,74,0.00,,,0.00,WUHU21623XXSP,2013-01-02 20:40:00,
2013-01-02 15:45:00,25.7,18.5,30.13,SSW,202,0.0,0.0,74,0.00,,,0.00,WUHU21623XXSP,2013-01-02 20:45:00,
2013-01-02 15:50:00,25.7,18.5,30.12,SSW,202,0.0,0.0,74,0.00,,,0.00,WUHU21623XXSP,2013-01-02 20:50:00,
2013-01-02 15:55:00,25.5,18.3,30.12,SSW,202,0.0,0.0,74,0.00,,,0.00,WUHU21623XXSP,2013-01-02 20:55:00,
2013-01-02 16:00:00,25.5,18.3,30.12,SSW,202,0.0,0.0,74,0.00,,,0.00,WUHU21623XXSP,2013-01-02 21:00:00,
2013-01-02 16:05:00,25.5,18.3,30.12,SSW,202,0.0,0.0,74,0.00,,,0.00,WUHU21623XXSP,2013-01-02 21:05:00,
2013-01-02 16:10:00,25.5,18.3,30.12,SSW,202,0.0,0.0,74,0.00,,,0.00,WUHU21623XXSP,2013-01-02 21:10:00,
2013-01-02 16:15:00,25.5,18.3,30.12,SSW,202,0.0,1.6,74,0.00,,,0.00,WUHU21623XXSP,2013-01-02 21:15:00,
2013-01-02 16:20:00,25.3,18.1,30.13,SW,225,0.0,1.6,74,0.00,,,0.00,WUHU21623XXSP,2013-01-02 21:20:00,
2013-01-02 16:25:00,25.3,18.1,30.13,SW,225,1.8,1.8,74,0.00,,,0.00,WUHU21623XXSP,2013-01-02 21:25:00,
2013-01-02 16:30:00,25.3,18.1,30.13,SW,225,0.0,1.8,74,0.00,,,0.00,WUHU21623XXSP,2013-01-02 21:30:00,
2013-01-02 16:35:00,25.2,18.0,30.13,North,0,0.0,0.0,74,0.00,,,0.00,WUHU21623XXSP,2013-01-02 21:35:00,
2013-01-02 16:40:00,25.2,18.0,30.13,NNW,337,0.0,0.0,74,0.00,,,0.00,WUHU21623XXSP,2013-01-02 21:40:00,
2013-01-02 16:45:00,25.0,17.8,30.12,NNW,337,0.0,0.0,74,0.00,,,0.00,WUHU21623XXSP,2013-01-02 21:45:00,
2013-01-02 16:50:00,25.0,17.8,30.13,SW,225,0.0,0.0,74,0.00,,,0.00,WUHU21623XXSP,2013-01-02 21:50:00,
2013-01-02 16:55:00,25.0,18.1,30.13,SW,225,0.0,0.0,75,0.00,,,0.00,WUHU21623XXSP,2013-01-02 21:55:00,
2013-01-02 17:00:00,25.0,18.1,30.13,SW,225,0.0,0.0,75,0.00,,,0.00,WUHU21623XXSP,2013-01-02 22:00:00,
2013-01-02 17:05:00,25.0,18.1,30.13,SW,225,0.0,0.0,75,0.00,,,0.00,WUHU21623XXSP,2013-01-02 22:05:00,
2013-01-02 17:10:00,24.8,18.0,30.13,SW,225,0.0,0.0,75,0.00,,,0.00,WUHU21623XXSP,2013-01-02 22:10:00,
2013-01-02 17:15:00,24.6,18.0,30.13,SW,225,2.7,2.7,75,0.00,,,0.00,WUHU21623XXSP,2013-01-02 22:15:00,
2013-01-02 17:20:00,24.6,17.8,30.13,SW,225,0.0,2.7,75,0.00,,,0.00,WUHU21623XXSP,2013-01-02 22:20:00,
2013-01-02 17:25:00,24.6,17.8,30.13,SW,225,0.0,2.7,75,0.00,,,0.00,WUHU21623XXSP,2013-01-02 22:25:00,
2013-01-02 17:30:00,24.6,17.8,30.14,SW,225,0.0,0.0,75,0.00,,,0.00,WUHU21623XXSP,2013-01-02 22:30:00,
2013-01-02 17:35:00,24.6,17.8,30.14,SW,225,0.0,0.0,75,0.00,,,0.00,WUHU21623XXSP,2013-01-02 22:35:00,
2013-01-02 17:40:00,24.6,17.8,30.14,SW,225,0.0,0.0,75,0.00,,,0.00,WUHU21623XXSP,2013-01-02 22:40:00,
2013-01-02 17:45:00,24.6,17.8,30.14,SW,225,0.0,0.0,75,0.00,,,0.00,WUHU21623XXSP,2013-01-02 22:45:00,
2013-01-02 17:50:00,24.6,18.1,30.14,SW,225,0.0,0.0,76,0.00,,,0.00,WUHU21623XXSP,2013-01-02 22:50:00,
2013-01-02 17:55:00,24.6,18.1,30.14,SW,225,0.0,0.0,76,0.00,,,0.00,WUHU21623XXSP,2013-01-02 22:55:00,
2013-01-02 18:00:00,24.6,18.1,30.14,SW,225,0.0,0.0,76,0.00,,,0.00,WUHU21623XXSP,2013-01-02 23:00:00,
2013-01-02 18:05:00,24.6,18.1,30.14,SW,225,0.0,0.0,76,0.00,,,0.00,WUHU21623XXSP,2013-01-02 23:05:00,
2013-01-02 18:10:00,24.4,17.9,30.14,SW,225,0.0,0.0,76,0.00,,,0.00,WUHU21623XXSP,2013-01-02 23:10:00,
2013-01-02 18:15:00,24.4,17.9,30.14,SW,225,0.0,0.0,76,0.00,,,0.00,WUHU21623XXSP,2013-01-02 23:15:00,
2013-01-02 18:20:00,24.4,18.2,30.14,SW,225,0.0,0.0,77,0.00,,,0.00,WUHU21623XXSP,2013-01-02 23:20:00,
2013-01-02 18:25:00,24.4,18.2,30.14,SW,225,0.0,0.0,77,0.00,,,0.00,WUHU21623XXSP,2013-01-02 23:25:00,
2013-01-02 18:30:00,24.4,18.2,30.14,SW,225,0.0,0.0,77,0.00,,,0.00,WUHU21623XXSP,2013-01-02 23:30:00,
2013-01-02 18:35:00,24.4,18.2,30.14,SW,225,0.0,0.0,77,0.00,,,0.00,WUHU21623XXSP,2013-01-02 23:35:00,
2013-01-02 18:40:00,24.4,18.2,30.14,SW,225,0.0,0.0,77,0.00,,,0.00,WUHU21623XXSP,2013-01-02 23:40:00,
2013-01-02 18:45:00,24.4,18.6,30.14,SW,225,0.0,0.0,78,0.00,,,0.00,WUHU21623XXSP,2013-01-02 23:45:00,
2013-01-02 18:50:00,24.4,18.6,30.14,SSW,202,0.0,0.0,78,0.00,,,0.00,WUHU21623XXSP,2013-01-02 23:50:00,
2013-01-02 18:55:00,24.4,18.6,30.15,SSW,202,0.0,0.0,78,0.00,,,0.00,WUHU21623XXSP,2013-01-02 23:55:00,
2013-01-02 19:00:00,24.4,18.6,30.14,SSW,202,0.0,0.0,78,0.00,,,0.00,WUHU21623XXSP,2013-01-03 00:00:00,
2013-01-02 19:05:00,24.1,18.2,30.14,SSW,202,1.1,1.1,78,0.00,,,0.00,WUHU21623XXSP,2013-01-03 00:05:00,
2013-01-02 19:10:00,24.1,18.2,30.15,SSW,202,0.0,1.1,78,0.00,,,0.00,WUHU21623XXSP,2013-01-03 00:10:00,
2013-01-02 19:15:00,24.1,18.2,30.15,SSW,202,0.0,0.0,78,0.00,,,0.00,WUHU21623XXSP,2013-01-03 00:15:00,
2013-01-02 19:20:00,24.1,18.2,30.16,SSW,202,0.0,0.0,78,0.00,,,0.00,WUHU21623XXSP,2013-01-03 00:20:00,
2013-01-02 19:25:00,24.1,18.2,30.15,SSW,202,0.0,0.0,78,0.00,,,0.00,WUHU21623XXSP,2013-01-03 00:25:00,
2013-01-02 19:30:00,24.1,18.2,30.16,South,180,0.0,1.8,78,0.00,,,0.00,WUHU21623XXSP,2013-01-03 00:30:00,
2013-01-02 19:35:00,24.1,18.2,30.16,South,180,0.0,1.8,78,0.00,,,0.00,WUHU21623XXSP,2013-01-03 00:35:00,
2013-01-02 19:40:00,24.1,18.2,30.16,SSE,157,0.0,0.0,78,0.00,,,0.00,WUHU21623XXSP,2013-01-03 00:40:00,
2013-01-02 19:45:00,24.1,18.5,30.16,SSE,157,0.0,0.0,79,0.00,,,0.00,WUHU21623XXSP,2013-01-03 00:45:00,
2013-01-02 19:50:00,24.1,18.5,30.16,SSE,157,0.0,0.0,79,0.00,,,0.00,WUHU21623XXSP,2013-01-03 00:50:00,
2013-01-02 19:55:00,24.1,18.5,30.16,SSE,157,0.0,0.0,79,0.00,,,0.00,WUHU21623XXSP,2013-01-03 00:55:00,
2013-01-02 20:00:00,24.1,18.5,30.16,SSE,157,0.0,0.0,79,0.00,,,0.00,WUHU21623XXSP,2013-01-03 01:00:00,
2013-01-02 20:05:00,24.1,18.5,30.16,SSE,157,0.0,0.0,79,0.00,,,0.00,WUHU21623XXSP,2013-01-03 01:05:00,
2013-01-02 20:10:00,24.1,18.5,30.16,SSW,202,0.7,0.7,79,0.00,,,0.00,WUHU21623XXSP,2013-01-03 01:10:00,
2013-01-02 20:15:00,24.1,18.5,30.15,SSE,157,0.0,2.7,79,0.00,,,0.00,WUHU21623XXSP,2013-01-03 01:15:00,
2013-01-02 20:20:00,24.1,18.5,30.15,SSE,157,0.0,2.7,79,0.00,,,0.00,WUHU21623XXSP,2013-01-03 01:20:00,
2013-01-02 20:25:00,24.1,18.5,30.15,SSE,157,0.0,0.0,79,0.00,,,0.00,WUHU21623XXSP,2013-01-03 01:25:00,
2013-01-02 20:30:00,24.1,18.5,30.15,SSE,157,0.0,0.0,79,0.00,,,0.00,WUHU21623XXSP,2013-01-03 01:30:00,
2013-01-02 20:35:00,24.1,18.5,30.14,SSE,157,0.0,0.0,79,0.00,,,0.00,WUHU21623XXSP,2013-01-03 01:35:00,
2013-01-02 20:40:00,24.1,18.5,30.14,SSE,157,0.0,0.0,79,0.00,,,0.00,WUHU21623XXSP,2013-01-03 01:40:00,
2013-01-02 20:45:00,24.1,18.5,30.14,South,180,0.0,2.7,79,0.00,,,0.00,WUHU21623XXSP,2013-01-03 01:45:00,
2013-01-02 20:50:00,24.1,18.5,30.14,SSE,157,0.0,2.7,79,0.00,,,0.00,WUHU21623XXSP,2013-01-03 01:50:00,
2013-01-02 20:55:00,24.1,18.9,30.14,SSE,157,0.0,1.6,80,0.00,,,0.00,WUHU21623XXSP,2013-01-03 01:55:00,
2013-01-02 21:00:00,24.1,18.9,30.14,South,180,0.0,0.0,80,0.00,,,0.00,WUHU21623XXSP,2013-01-03 02:00:00,
2013-01-02 21:05:00,24.1,18.9,30.14,South,180,0.0,0.0,80,0.00,,,0.00,WUHU21623XXSP,2013-01-03 02:05:00,
2013-01-02 21:10:00,24.1,18.9,30.14,South,180,0.0,1.3,80,0.00,,,0.00,WUHU21623XXSP,2013-01-03 02:10:00,
2013-01-02 21:15:00,24.1,18.9,30.14,South,180,0.0,1.3,80,0.00,,,0.00,WUHU21623XXSP,2013-01-03 02:15:00,
2013-01-02 21:20:00,24.1,18.9,30.13,South,180,0.0,0.0,80,0.00,,,0.00,WUHU21623XXSP,2013-01-03 02:20:00,
2013-01-02 21:25:00,24.1,18.9,30.13,South,180,0.0,0.0,80,0.00,,,0.00,WUHU21623XXSP,2013-01-03 02:25:00,
2013-01-02 21:30:00,24.1,18.9,30.13,SSE,157,0.0,0.0,80,0.00,,,0.00,WUHU21623XXSP,2013-01-03 02:30:00,
2013-01-02 21:35:00,24.1,18.9,30.14,SSE,157,2.5,2.5,80,0.00,,,0.00,WUHU21623XXSP,2013-01-03 02:35:00,
2013-01-02 21:40:00,24.1,18.9,30.14,SSW,202,0.0,2.5,80,0.00,,,0.00,WUHU21623XXSP,2013-01-03 02:40:00,
2013-01-02 21:45:00,24.1,18.9,30.14,South,180,1.3,1.3,80,0.00,,,0.00,WUHU21623XXSP,2013-01-03 02:45:00,
2013-01-02 21:50:00,24.1,18.9,30.14,South,180,0.0,1.3,80,0.00,,,0.00,WUHU21623XXSP,2013-01-03 02:50:00,
2013-01-02 21:55:00,24.1,18.9,30.13,SSW,202,0.0,2.7,80,0.00,,,0.00,WUHU21623XXSP,2013-01-03 02:55:00,
2013-01-02 22:00:00,24.1,18.9,30.13,SW,225,0.0,3.6,80,0.00,,,0.00,WUHU21623XXSP,2013-01-03 03:00:00,
2013-01-02 22:05:00,24.1,18.9,30.13,SW,225,0.0,3.6,80,0.00,,,0.00,WUHU21623XXSP,2013-01-03 03:05:00,
2013-01-02 22:10:00,24.1,18.9,30.13,South,180,0.4,3.1,80,0.00,,,0.00,WUHU21623XXSP,2013-01-03 03:10:00,
2013-01-02 22:15:00,24.1,18.9,30.13,SSW,202,0.0,3.1,80,0.00,,,0.00,WUHU21623XXSP,2013-01-03 03:15:00,
2013-01-02 22:20:00,24.1,18.9,30.13,South,180,0.0,2.0,80,0.00,,,0.00,WUHU21623XXSP,2013-01-03 03:20:00,
2013-01-02 22:25:00,24.1,18.9,30.13,SSW,202,0.0,2.0,80,0.00,,,0.00,WUHU21623XXSP,2013-01-03 03:25:00,
2013-01-02 22:31:00,24.1,18.9,30.13,SSW,202,0.0,0.0,80,0.00,,,0.00,WUHU21623XXSP,2013-01-03 03:31:00,
2013-01-02 22:38:00,24.1,18.9,30.13,SW,225,1.1,1.1,80,0.00,,,0.00,WUHU21623XXSP,2013-01-03 03:38:00,
2013-01-02 22:43:00,24.1,18.9,30.13,SSW,202,1.8,1.8,80,0.00,,,0.00,WUHU21623XXSP,2013-01-03 03:43:00,
2013-01-02 22:48:00,24.1,18.9,30.13,South,180,0.0,1.8,80,0.00,,,0.00,WUHU21623XXSP,2013-01-03 03:48:00,
2013-01-02 22:53:00,24.1,18.9,30.13,South,180,0.0,0.0,80,0.00,,,0.00,WUHU21623XXSP,2013-01-03 03:53:00,
2013-01-02 22:58:00,24.1,18.9,30.13,SSW,202,4.3,4.3,80,0.00,,,0.00,WUHU21623XXSP,2013-01-03 03:58:00,
2013-01-02 23:03:00,24.1,18.9,30.13,SSW,202,2.9,4.3,80,0.00,,,0.00,WUHU21623XXSP,2013-01-03 04:03:00,
2013-01-02 23:08:00,23.9,18.7,30.13,SSW,202,0.2,5.8,80,0.00,,,0.00,WUHU21623XXSP,2013-01-03 04:08:00,
2013-01-02 23:13:00,23.9,18.7,30.13,SSW,202,5.1,5.8,80,0.00,,,0.00,WUHU21623XXSP,2013-01-03 04:13:00,
2013-01-02 23:18:00,23.9,18.7,30.13,SW,225,0.0,5.1,80,0.00,,,0.00,WUHU21623XXSP,2013-01-03 04:18:00,
2013-01-02 23:23:00,23.9,18.7,30.13,SW,225,0.7,0.7,80,0.00,,,0.00,WUHU21623XXSP,2013-01-03 04:23:00,
2013-01-02 23:28:00,23.9,18.7,30.13,SW,225,0.0,0.7,80,0.00,,,0.00,WUHU21623XXSP,2013-01-03 04:28:00,
2013-01-02 23:33:00,23.9,18.7,30.13,SW,225,1.6,1.6,80,0.00,,,0.00,WUHU21623XXSP,2013-01-03 04:33:00,
2013-01-02 23:38:00,23.9,18.7,30.13,SW,225,1.6,1.6,80,0.00,,,0.00,WUHU21623XXSP,2013-01-03 04:38:00,
2013-01-02 23:43:00,23.9,18.7,30.13,South,180,0.0,1.6,80,0.00,,,0.00,WUHU21623XXSP,2013-01-03 04:43:00,
2013-01-02 23:48:00,23.9,18.7,30.13,South,180,0.0,1.6,80,0.00,,,0.00,WUHU21623XXSP,2013-01-03 04:48:00,
2013-01-02 23:53:00,23.9,18.7,30.13,SSE,157,0.9,0.9,80,0.00,,,0.00,WUHU21623XXSP,2013-01-03 04:53:00,
2013-01-02 23:58:00,23.7,18.5,30.12,SW,225,0.0,0.9,80,0.00,,,0.00,WUHU21623XXSP,2013-01-03 04:58:00,